Weather History for Ottumwa, IA

Change the Weather History Date:

Wednesday, January 2, 2013

  Actual Average Record
Temperature  
Mean Temperature 23 °F 23 °F  
Max Temperature 37 °F 32 °F 62 °F (2004)
Min Temperature 9 °F 14 °F -15 °F (1979)
Degree Days  
Heating Degree Days 42 42  
Month to date heating degree days 94 84  
Since 1 July heating degree days 2403 2589  
Cooling Degree Days 0 0  
Month to date cooling degree days 0 0  
Year to date cooling degree days 0 0  
Moisture  
Dew Point 15 °F    
Average Humidity 64    
Maximum Humidity 80    
Minimum Humidity 48    
Precipitation  
Precipitation 0.00 in 0.04 in 0.46 in (1982)
Month to date precipitation 0.00 0.07  
Year to date precipitation 0.00 0.07  
Sea Level Pressure  
Sea Level Pressure 30.13 in    
Wind  
Wind Speed 10 mph (SW)    
Max Wind Speed 17 mph    
Max Gust Speed 22 mph    
Visibility 10 miles    
Events      
T = Trace of Precipitation, MM = Missing Value Source: NWS Daily Summary

Daily Weather History Graph

Daily Weather History Graph

Search for Another Location

Airport:

Trip Planner

Search our weather history database for the weather conditions in past years. The results will help you decide how hot, cold, wet, or windy it might be!

Date:

Astronomy

Jan. 02, 2013 Rise Set
Actual Time 7:35 AM CST 4:53 PM CST
Civil Twilight 7:04 AM CST 5:24 PM CST
Nautical Twilight 6:29 AM CST 5:58 PM CST
Astronomical Twilight 5:56 AM CST 6:32 PM CST
Moon 10:29 PM CST (1/2) 10:14 AM CST (1/2)
Length of Visible Light 10h 19m
Length of Day
9h 17m
Waning Gibbous, 75% of the Moon is Illuminated
Jan 2
Waning Gibbous
Jan 4
Last Quarter
Jan 11
New
Jan 18
First Quarter
Jan 26
Full

Hourly Weather History & Observations

Time (CST) Temp. Windchill Dew Point Humidity Pressure Visibility Wind Dir Wind Speed Gust Speed Precip Events Conditions
12:53 AM 10.0 °F 0.4 °F 3.9 °F 76% 30.23 in 10.0 mi South 5.8 mph - N/A   Clear
1:53 AM 10.9 °F -0.8 °F 3.9 °F 73% 30.20 in 10.0 mi South 8.1 mph - N/A   Clear
2:53 AM 10.4 °F -1.5 °F 5.0 °F 79% 30.14 in 10.0 mi South 8.1 mph - N/A   Clear
3:53 AM 12.0 °F -1.3 °F 5.0 °F 73% 30.16 in 10.0 mi SSW 10.4 mph - N/A   Clear
4:53 AM 12.0 °F -1.3 °F 5.0 °F 73% 30.15 in 10.0 mi SSW 10.4 mph - N/A   Clear
5:53 AM 10.9 °F -0.8 °F 5.0 °F 77% 30.15 in 10.0 mi SSW 8.1 mph - N/A   Clear
6:53 AM 12.9 °F 2.6 °F 7.0 °F 77% 30.14 in 10.0 mi SSW 6.9 mph - N/A   Clear
7:53 AM 14.0 °F 2.9 °F 8.1 °F 77% 30.13 in 10.0 mi South 8.1 mph - N/A   Clear
8:53 AM 17.6 °F 6.4 °F 12.2 °F 79% 30.08 in 10.0 mi SSW 9.2 mph - N/A   Clear
9:53 AM 24.1 °F 13.1 °F 16.0 °F 71% 30.13 in 10.0 mi SW 11.5 mph - N/A   Clear
10:53 AM 28.9 °F 18.6 °F 17.1 °F 61% 30.12 in 10.0 mi SW 12.7 mph - N/A   Clear
11:53 AM 33.1 °F 23.0 °F 18.0 °F 54% 30.09 in 10.0 mi SW 15.0 mph 20.7 mph N/A   Clear
12:53 PM 35.1 °F 25.9 °F 19.0 °F 52% 30.06 in 10.0 mi SW 13.8 mph - N/A   Clear
1:53 PM 36.0 °F 26.3 °F 19.0 °F 50% 30.05 in 10.0 mi SW 16.1 mph - N/A   Clear
2:53 PM 37.0 °F 29.3 °F 19.0 °F 48% 30.05 in 10.0 mi WSW 11.5 mph - N/A   Clear
3:53 PM 34.0 °F 25.5 °F 19.0 °F 54% 30.07 in 10.0 mi West 11.5 mph - N/A   Overcast
4:53 PM 32.0 °F 23.0 °F 19.0 °F 59% 30.10 in 10.0 mi West 11.5 mph - N/A   Overcast
5:53 PM 30.9 °F 22.2 °F 19.9 °F 64% 30.13 in 10.0 mi West 10.4 mph - N/A   Overcast
6:07 PM 30.2 °F 21.9 °F 19.4 °F 64% 30.09 in 10.0 mi West 9.2 mph - N/A   Overcast
6:53 PM 30.0 °F 20.5 °F 19.9 °F 66% 30.15 in 10.0 mi West 11.5 mph - N/A   Overcast
7:53 PM 28.9 °F 21.1 °F 21.0 °F 72% 30.15 in 10.0 mi West 8.1 mph - N/A   Overcast
8:36 PM 28.4 °F 19.7 °F 21.2 °F 74% 30.11 in 10.0 mi WSW 9.2 mph - N/A   Overcast
8:53 PM 28.0 °F 20.0 °F 21.0 °F 75% 30.15 in 10.0 mi WSW 8.1 mph - N/A   Overcast
9:53 PM 28.9 °F 20.4 °F 23.0 °F 78% 30.16 in 10.0 mi WSW 9.2 mph - N/A   Overcast
10:22 PM 28.4 °F 20.4 °F 23.0 °F 80% 30.13 in 10.0 mi WSW 8.1 mph - N/A   Overcast
10:53 PM 28.9 °F 20.4 °F 23.0 °F 78% 30.18 in 9.0 mi WSW 9.2 mph - N/A   Overcast
11:53 PM 28.9 °F 21.1 °F 24.1 °F 82% 30.18 in 9.0 mi WSW 8.1 mph - N/A   Overcast